#timestamp,LO_Frequency,Hit,StdDev 
1581040815.3,286047000.1,N
1581040835.1,286047004.3,N
1581040855.8,286047001.3,N
1581040875.7,286047003.8,N
1581040925.5,286047005.2,E
1581040935.5,286047001.5,N
1581040955.3,286046999.5,P
1581040975.1,286046998.3,N
1581040995.9,286046999.2,N
1581041015.7,286046997.0,N
1581041035.6,286046999.6,N
1581041055.4,286046996.9,N
1581041075.2,286046996.5,N
1581041095.1,286046996.7,N
1581041096.0,286046996.7,N
1581041115.8,286046995.1,Y
1581041135.7,286046995.4,P
1581041155.5,286046996.5,N
1581041175.3,286046997.4,N
1581041195.2,286046997.7,N
1581041215.0,286046997.8,N
1581041215.9,286046997.8,N
1581041235.8,286046997.4,N
1581041255.6,286046997.2,Y
1581041275.4,286046999.9,P
1581041295.3,286047000.9,N
1581041315.1,286047002.7,N
1581041335.9,286047002.2,N
1581041355.7,286047004.4,N
1581041375.5,286047003.4,N
1581041395.4,286047002.2,N
1581041415.2,286047002.5,N
1581041435.0,286046999.7,N
1581041435.9,286046999.7,N
1581041455.8,286047000.6,N
1581041475.6,286046998.2,N
1581041495.5,286046999.6,N
1581041515.3,286046999.5,N
1581041535.1,286046998.1,N
1581041555.9,286046999.0,N
1581041575.7,286046998.9,N
1581041595.5,286046999.2,N
1581041615.4,286046999.1,N
1581041635.2,286046998.5,N
1581041655.1,286046996.9,N
1581041656.0,286046996.9,N
1581041675.8,286047000.7,N
1581041695.6,286047002.0,N
1581041715.5,286047002.0,N
1581041735.3,286047000.8,N
1581041755.2,286046998.2,N
1581041775.9,286046996.5,N
1581041795.7,286046998.1,N
1581041815.6,286047000.3,N
1581041835.4,286047001.9,N
1581041855.2,286047002.5,N
1581041875.1,286046999.8,N
1581041876.0,286046999.8,N
1581041895.8,286047000.6,N
1581041915.7,286047000.2,N
1581041935.5,286047000.1,N
1581041955.3,286047001.0,N
1581041975.2,286047002.6,N
1581041995.0,286047001.1,N
1581041995.9,286047001.1,N
1581042015.8,286046998.9,N
1581042035.6,286047000.6,N
1581042055.4,286047002.1,N
1581042075.3,286047000.3,N
1581042095.1,286046999.9,N
1581042115.8,286047002.3,N
1581042135.7,286046998.1,N
1581042155.5,286046998.2,N
1581042175.4,286046996.5,N
1581042195.2,286046997.1,N
1581042215.0,286046996.7,N
1581042215.9,286046996.7,N
1581042235.8,286046997.4,N
1581042255.6,286046997.2,N
1581042275.4,286046997.0,N
1581042295.3,286046999.5,N
1581042315.1,286047001.8,N
1581042335.9,286047000.1,N
1581042355.7,286047001.9,N
1581042375.5,286046999.8,N
1581042395.4,286047000.7,N
1581042415.2,286046998.2,N
1581042435.0,286047000.6,N
1581042436.0,286047000.6,N
1581042455.8,286047000.9,N
1581042475.6,286047000.7,N
1581042495.5,286047000.4,N
1581042515.3,286047000.9,N
1581042535.1,286046998.1,N
1581042555.9,286047001.0,N
1581042575.7,286046999.9,N
1581042595.6,286047001.5,N
1581042615.4,286047001.9,N
1581042635.2,286046999.7,N
1581042655.1,286047002.6,N
1581042656.0,286047002.6,N
1581042675.8,286047001.4,N
1581042695.7,286047001.3,N
1581042715.5,286047004.3,N
1581042735.3,286047004.0,N
1581042755.2,286047004.0,N
1581042775.0,286047000.5,N
1581042775.9,286047000.5,N
1581042795.7,286047002.6,N
1581042815.6,286047001.3,N
1581042835.4,286047003.7,N
1581042855.3,286047003.6,N
1581042875.1,286047003.0,N
1581042876.0,286047003.0,N
1581042895.8,286047003.7,N
1581042915.7,286047005.5,Y
1581042935.5,286047002.8,P
1581042955.4,286046998.9,N
1581042975.2,286047002.2,N
1581042995.0,286047004.4,N
1581042995.9,286047004.4,N
1581043015.8,286047004.0,N
1581043035.6,286047002.4,N
1581043055.4,286047002.4,N
1581043075.3,286047002.1,N
1581043095.1,286047001.1,N
1581043115.9,286046999.9,N
1581043135.7,286047001.3,N
1581043155.5,286047003.7,N
1581043175.4,286047004.3,N
1581043195.2,286047002.6,N
1581043215.0,286047002.1,N
1581043215.9,286047002.1,N
1581043235.8,286047004.2,N
1581043255.6,286047003.4,N
1581043275.5,286047001.3,N
1581043295.3,286047003.8,N
1581043315.1,286047003.1,N
1581043335.9,286047005.2,Y
1581043355.7,286047001.6,P
1581043375.6,286046998.5,P
1581043395.4,286046996.9,N
1581043415.2,286046996.9,N
1581043435.1,286046996.8,N
1581043436.0,286046996.8,N
1581043455.8,286046999.1,N
1581043475.7,286046995.4,N
1581043495.5,286046997.9,N
1581043515.3,286046997.0,N
1581043535.2,286046996.6,N
1581043555.0,286046996.7,N
1581043555.9,286046996.7,N
1581043575.7,286046999.2,N
1581043595.6,286046997.1,N
1581043615.4,286046997.9,N
1581043635.3,286046995.1,N
1581043655.1,286046995.3,N
1581043656.0,286046995.3,N
1581043675.8,286046994.9,N
1581043695.7,286046998.0,N
1581043715.5,286046999.6,N
1581043735.3,286046997.0,N
1581043755.2,286047000.8,N
1581043775.0,286046999.5,N
1581043775.9,286046999.5,N
1581043795.8,286046997.5,N
1581043815.6,286046997.8,N
1581043835.4,286046999.3,N
1581043855.3,286046999.1,N
1581043875.1,286046999.2,N
1581043895.8,286046998.1,N
1581043915.7,286046996.7,N
1581043935.5,286046996.6,N
1581043955.4,286046999.9,N
1581043975.2,286047000.2,N
1581043995.0,286046998.2,N
1581043995.9,286046998.2,N
1581044015.8,286046998.3,N
1581044035.6,286046998.7,N
1581044055.4,286047000.8,N
1581044075.3,286046998.4,N
1581044095.1,286046999.3,N
1581044115.9,286046999.0,N
1581044135.7,286046998.4,N
1581044155.5,286046999.2,N
1581044175.4,286046999.2,N
1581044195.2,286046997.4,N
1581044215.1,286046995.3,Y
1581044216.0,286046995.3,P
1581044235.8,286046999.5,N
1581044255.6,286046997.2,N
1581044275.5,286046998.0,N
1581044295.3,286046996.7,N
1581044315.1,286046998.0,N
1581044335.9,286046995.3,Y
1581044355.7,286046999.3,P
1581044375.6,286046999.0,N
1581044395.4,286046996.7,P
